VOZ63 YMLT-YMML

Flight info

Callsign VOZ63
Flight time 0h 50m
Altitude 36000
Route LT H215 RAZZI W687 ML
Aircraft B738/M-SDE2E3FGHIRWXY/LB1

Departure

Time 2026-04-14 10:30
Airport Launceston Airport (YMLT)

Arrival

Time 2026-04-14 11:20
Airport Melbourne Airport (YMML)
Time Latitude Longitude Altitude Speed Heading
2026-04-14 09:58 -41.54220 147.20617 583 ft 0 kts 287°
2026-04-14 10:25 -41.54219 147.20614 583 ft 0 kts 288°
2026-04-14 10:26 -41.54218 147.20612 583 ft 0 kts 289°
2026-04-14 10:26 -41.54218 147.20611 583 ft 1 kts 289°
2026-04-14 10:26 -41.54205 147.20615 583 ft 3 kts 53°
2026-04-14 10:26 -41.54235 147.20677 583 ft 13 kts 143°
2026-04-14 10:27 -41.54314 147.20745 583 ft 15 kts 148°
2026-04-14 10:27 -41.54406 147.20825 583 ft 17 kts 147°
2026-04-14 10:27 -41.54518 147.20922 589 ft 24 kts 147°
2026-04-14 10:27 -41.54661 147.21046 588 ft 25 kts 147°
2026-04-14 10:28 -41.54813 147.21173 584 ft 27 kts 149°
2026-04-14 10:28 -41.54975 147.21310 583 ft 27 kts 147°
2026-04-14 10:28 -41.55137 147.21449 584 ft 27 kts 147°
2026-04-14 10:28 -41.55225 147.21549 587 ft 12 kts 113°
2026-04-14 10:29 -41.55219 147.21644 589 ft 10 kts 59°
2026-04-14 10:29 -41.55169 147.21666 591 ft 10 kts 340°
2026-04-14 10:29 -41.54976 147.21503 588 ft 67 kts 327°
2026-04-14 10:29 -41.54376 147.20992 596 ft 135 kts 328°
2026-04-14 10:30 -41.53525 147.20225 1154 ft 154 kts 327°
2026-04-14 10:30 -41.52602 147.19431 2085 ft 163 kts 330°
2026-04-14 10:30 -41.51490 147.18843 2777 ft 180 kts 336°
2026-04-14 10:30 -41.50240 147.18270 3439 ft 198 kts 335°
2026-04-14 10:31 -41.48898 147.17607 4104 ft 216 kts 332°
2026-04-14 10:31 -41.47452 147.16839 4972 ft 232 kts 330°
2026-04-14 10:31 -41.45901 147.15997 5804 ft 248 kts 328°
2026-04-14 10:31 -41.44281 147.15119 6840 ft 252 kts 328°
2026-04-14 10:32 -41.42637 147.14238 7897 ft 256 kts 328°
2026-04-14 10:32 -41.40969 147.13345 8950 ft 261 kts 329°
2026-04-14 10:32 -41.39265 147.12431 10006 ft 266 kts 329°
2026-04-14 10:32 -41.37503 147.11480 10708 ft 283 kts 329°
2026-04-14 10:33 -41.35628 147.10462 11303 ft 300 kts 329°
2026-04-14 10:33 -41.33656 147.09397 11896 ft 318 kts 329°
2026-04-14 10:33 -41.31575 147.08290 12723 ft 327 kts 329°
2026-04-14 10:33 -41.29439 147.07160 13629 ft 334 kts 329°
2026-04-14 10:34 -41.25049 147.04820 15282 ft 345 kts 329°
2026-04-14 10:34 -41.22801 147.03615 16113 ft 351 kts 329°
2026-04-14 10:34 -41.20525 147.02397 16950 ft 356 kts 329°
2026-04-14 10:35 -41.18206 147.01160 17791 ft 361 kts 329°
2026-04-14 10:35 -41.15859 146.99911 18576 ft 366 kts 329°
2026-04-14 10:35 -41.13478 146.98644 19320 ft 370 kts 329°
2026-04-14 10:35 -41.11076 146.97367 20082 ft 374 kts 329°
2026-04-14 10:36 -41.08645 146.96076 20831 ft 377 kts 329°
2026-04-14 10:36 -41.06204 146.94779 21578 ft 380 kts 329°
2026-04-14 10:36 -41.03735 146.93467 22286 ft 384 kts 329°
2026-04-14 10:36 -41.01238 146.92141 22971 ft 388 kts 330°
2026-04-14 10:37 -40.98720 146.90806 23647 ft 391 kts 330°
2026-04-14 10:37 -40.96186 146.89465 24224 ft 394 kts 330°
2026-04-14 10:37 -40.93655 146.88128 24809 ft 397 kts 329°
2026-04-14 10:37 -40.91087 146.86771 25363 ft 399 kts 329°
2026-04-14 10:38 -40.88502 146.85405 25912 ft 401 kts 329°
2026-04-14 10:38 -40.85903 146.84033 26451 ft 404 kts 329°
2026-04-14 10:38 -40.83285 146.82652 26975 ft 406 kts 329°
2026-04-14 10:38 -40.80662 146.81269 27454 ft 408 kts 329°
2026-04-14 10:39 -40.78903 146.80343 27787 ft 409 kts 329°
2026-04-14 10:39 -40.76254 146.78950 28271 ft 412 kts 329°
2026-04-14 10:39 -40.72676 146.77069 28886 ft 414 kts 329°
2026-04-14 10:39 -40.69993 146.75660 29320 ft 416 kts 329°
2026-04-14 10:40 -40.68203 146.74721 29612 ft 418 kts 329°
2026-04-14 10:40 -40.65492 146.73299 29997 ft 420 kts 329°
2026-04-14 10:40 -40.61876 146.71405 30452 ft 423 kts 329°
2026-04-14 10:40 -40.60032 146.70440 30653 ft 424 kts 329°
2026-04-14 10:41 -40.57277 146.68999 30963 ft 427 kts 329°
2026-04-14 10:41 -40.54510 146.67554 31327 ft 427 kts 329°
2026-04-14 10:41 -40.51744 146.66114 31753 ft 427 kts 329°
2026-04-14 10:41 -40.48992 146.64681 32184 ft 425 kts 329°
2026-04-14 10:42 -40.46278 146.63267 32618 ft 424 kts 329°
2026-04-14 10:42 -40.43538 146.61840 33064 ft 423 kts 329°
2026-04-14 10:42 -40.40813 146.60421 33497 ft 421 kts 329°
2026-04-14 10:42 -40.38084 146.59003 33931 ft 420 kts 329°
2026-04-14 10:43 -40.35367 146.57592 34332 ft 419 kts 329°
2026-04-14 10:43 -40.32661 146.56188 34706 ft 417 kts 329°
2026-04-14 10:43 -40.29964 146.54790 35085 ft 416 kts 329°
2026-04-14 10:43 -40.27276 146.53398 35450 ft 415 kts 329°
2026-04-14 10:44 -40.24591 146.52008 35810 ft 414 kts 329°
2026-04-14 10:44 -40.21907 146.50620 36073 ft 416 kts 329°
2026-04-14 10:44 -40.19195 146.49212 36044 ft 419 kts 329°
2026-04-14 10:45 -40.13854 146.46473 36068 ft 407 kts 329°
2026-04-14 10:45 -40.08626 146.43771 36083 ft 407 kts 329°
2026-04-14 10:46 -40.03361 146.41057 36084 ft 407 kts 329°
2026-04-14 10:46 -39.98088 146.38356 36088 ft 407 kts 329°
2026-04-14 10:47 -39.92828 146.35643 36088 ft 406 kts 329°
2026-04-14 10:47 -39.87566 146.32933 36093 ft 407 kts 329°
2026-04-14 10:48 -39.82286 146.30228 36098 ft 407 kts 329°
2026-04-14 10:48 -39.77015 146.27527 36086 ft 407 kts 329°
2026-04-14 10:49 -39.71744 146.24830 36089 ft 407 kts 329°
2026-04-14 10:49 -39.66495 146.22148 36103 ft 408 kts 329°
2026-04-14 10:50 -39.61202 146.19450 36110 ft 408 kts 329°
2026-04-14 10:50 -39.55923 146.16764 36116 ft 408 kts 329°
2026-04-14 10:51 -39.50630 146.14073 36111 ft 408 kts 329°
2026-04-14 10:51 -39.45386 146.11413 36117 ft 408 kts 329°
2026-04-14 10:52 -39.40099 146.08735 36122 ft 408 kts 329°
2026-04-14 10:52 -39.34819 146.06065 36125 ft 408 kts 329°
2026-04-14 10:53 -39.29530 146.03395 36118 ft 408 kts 329°
2026-04-14 10:53 -39.24245 146.00732 36119 ft 407 kts 329°
2026-04-14 10:54 -39.18961 145.98071 36136 ft 408 kts 329°
2026-04-14 10:54 -39.13674 145.95416 36136 ft 408 kts 329°
2026-04-14 10:55 -39.08375 145.92759 36143 ft 408 kts 329°
2026-04-14 10:55 -39.03125 145.90130 36136 ft 407 kts 329°
2026-04-14 10:56 -38.97834 145.87483 36145 ft 408 kts 329°
2026-04-14 10:56 -38.92542 145.84842 36156 ft 408 kts 329°
2026-04-14 10:57 -38.87246 145.82203 36152 ft 408 kts 330°
2026-04-14 10:57 -38.81956 145.79571 36143 ft 408 kts 330°
2026-04-14 10:58 -38.76661 145.76940 36152 ft 408 kts 330°
2026-04-14 10:58 -38.71383 145.74319 35665 ft 415 kts 330°
2026-04-14 10:58 -38.68638 145.72952 34869 ft 420 kts 330°
2026-04-14 10:59 -38.65933 145.71612 34119 ft 424 kts 331°
2026-04-14 10:59 -38.63187 145.70262 33586 ft 421 kts 331°
2026-04-14 10:59 -38.60457 145.68924 33035 ft 417 kts 331°
2026-04-14 10:59 -38.57764 145.67598 32496 ft 415 kts 331°
2026-04-14 11:00 -38.55083 145.66270 31952 ft 412 kts 331°
2026-04-14 11:00 -38.52413 145.64949 31445 ft 410 kts 331°
2026-04-14 11:00 -38.49751 145.63636 30907 ft 409 kts 331°
2026-04-14 11:00 -38.47124 145.62302 30395 ft 404 kts 328°
2026-04-14 11:01 -38.44652 145.60655 29812 ft 399 kts 324°
2026-04-14 11:01 -38.42216 145.58964 29252 ft 397 kts 324°
2026-04-14 11:01 -38.39800 145.57289 28701 ft 395 kts 324°
2026-04-14 11:01 -38.37391 145.55628 28167 ft 393 kts 324°
2026-04-14 11:02 -38.34990 145.53979 27618 ft 391 kts 325°
2026-04-14 11:02 -38.32598 145.52336 27058 ft 390 kts 325°
2026-04-14 11:02 -38.30213 145.50697 26516 ft 389 kts 325°
2026-04-14 11:02 -38.27832 145.49060 25968 ft 389 kts 325°
2026-04-14 11:03 -38.25464 145.47435 25413 ft 383 kts 325°
2026-04-14 11:03 -38.23129 145.45838 24858 ft 378 kts 325°
2026-04-14 11:03 -38.20831 145.44265 24305 ft 373 kts 325°
2026-04-14 11:03 -38.18560 145.42709 23754 ft 369 kts 325°
2026-04-14 11:04 -38.16342 145.41189 23143 ft 365 kts 325°
2026-04-14 11:04 -38.14114 145.39664 22581 ft 363 kts 325°
2026-04-14 11:04 -38.11888 145.38139 22016 ft 364 kts 325°
2026-04-14 11:04 -38.09657 145.36613 21451 ft 365 kts 326°
2026-04-14 11:05 -38.07416 145.35084 20887 ft 366 kts 326°
2026-04-14 11:05 -38.05164 145.33550 20303 ft 368 kts 326°
2026-04-14 11:05 -38.02898 145.32007 19726 ft 370 kts 326°
2026-04-14 11:05 -38.00625 145.30457 19123 ft 371 kts 326°
2026-04-14 11:06 -37.98356 145.28878 18518 ft 373 kts 325°
2026-04-14 11:06 -37.96094 145.27279 17845 ft 369 kts 325°
2026-04-14 11:06 -37.93872 145.25711 17202 ft 362 kts 326°
2026-04-14 11:06 -37.91715 145.24202 16613 ft 355 kts 326°
2026-04-14 11:07 -37.89568 145.22708 16016 ft 348 kts 326°
2026-04-14 11:07 -37.87462 145.21244 15428 ft 342 kts 326°
2026-04-14 11:07 -37.85390 145.19798 14828 ft 337 kts 326°
2026-04-14 11:07 -37.83353 145.18381 14269 ft 332 kts 326°
2026-04-14 11:08 -37.81329 145.17019 13654 ft 327 kts 327°
2026-04-14 11:08 -37.79325 145.15705 13053 ft 322 kts 327°
2026-04-14 11:08 -37.77349 145.14410 12477 ft 316 kts 327°
2026-04-14 11:08 -37.75428 145.13137 11912 ft 310 kts 327°
2026-04-14 11:09 -37.73539 145.11874 11361 ft 306 kts 327°
2026-04-14 11:09 -37.71642 145.10615 10807 ft 308 kts 328°
2026-04-14 11:09 -37.69712 145.09450 10443 ft 303 kts 330°
2026-04-14 11:10 -37.66059 145.07408 10222 ft 276 kts 330°
2026-04-14 11:10 -37.64312 145.06389 9919 ft 277 kts 329°
2026-04-14 11:10 -37.62593 145.05364 9475 ft 276 kts 329°
2026-04-14 11:10 -37.60852 145.04331 9075 ft 270 kts 330°
2026-04-14 11:11 -37.59183 145.03352 8746 ft 267 kts 330°
2026-04-14 11:11 -37.57508 145.02373 8438 ft 265 kts 330°
2026-04-14 11:11 -37.55828 145.01390 8128 ft 265 kts 330°
2026-04-14 11:11 -37.54160 145.00408 7815 ft 265 kts 330°
2026-04-14 11:12 -37.52493 144.99398 7514 ft 265 kts 330°
2026-04-14 11:12 -37.50857 144.98396 7214 ft 258 kts 330°
2026-04-14 11:12 -37.49254 144.97418 6935 ft 256 kts 330°
2026-04-14 11:12 -37.47656 144.96446 6647 ft 255 kts 330°
2026-04-14 11:13 -37.46109 144.95402 6346 ft 245 kts 320°
2026-04-14 11:13 -37.45049 144.93855 6065 ft 226 kts 294°
2026-04-14 11:13 -37.44616 144.92024 5746 ft 213 kts 272°
2026-04-14 11:13 -37.44729 144.90233 5476 ft 200 kts 256°
2026-04-14 11:14 -37.44993 144.88553 5181 ft 191 kts 257°
2026-04-14 11:14 -37.45221 144.86942 4905 ft 183 kts 258°
2026-04-14 11:14 -37.45433 144.85404 4661 ft 174 kts 258°
2026-04-14 11:14 -37.45634 144.83962 4615 ft 166 kts 258°
2026-04-14 11:15 -37.45839 144.82520 4540 ft 167 kts 258°
2026-04-14 11:15 -37.46113 144.81126 4447 ft 163 kts 243°
2026-04-14 11:15 -37.46927 144.80198 4386 ft 168 kts 204°
2026-04-14 11:15 -37.48129 144.80132 4183 ft 174 kts 173°
2026-04-14 11:16 -37.49341 144.80456 3736 ft 179 kts 174°
2026-04-14 11:16 -37.50556 144.80715 3412 ft 173 kts 176°
2026-04-14 11:16 -37.51729 144.80943 3180 ft 174 kts 176°
2026-04-14 11:16 -37.52917 144.81168 2941 ft 172 kts 176°
2026-04-14 11:17 -37.54092 144.81389 2719 ft 169 kts 176°
2026-04-14 11:17 -37.55262 144.81608 2487 ft 170 kts 176°
2026-04-14 11:17 -37.56441 144.81828 2245 ft 172 kts 176°
2026-04-14 11:17 -37.57615 144.82048 2020 ft 167 kts 176°
2026-04-14 11:18 -37.58746 144.82260 1791 ft 159 kts 176°
2026-04-14 11:18 -37.59813 144.82460 1581 ft 153 kts 175°
2026-04-14 11:18 -37.60852 144.82653 1366 ft 148 kts 174°
2026-04-14 11:18 -37.61854 144.82840 1161 ft 145 kts 173°
2026-04-14 11:19 -37.62831 144.83023 984 ft 142 kts 173°
2026-04-14 11:19 -37.63801 144.83211 780 ft 140 kts 173°
2026-04-14 11:19 -37.64764 144.83398 591 ft 138 kts 174°
2026-04-14 11:19 -37.65705 144.83567 430 ft 137 kts 173°
2026-04-14 11:20 -37.66465 144.83707 405 ft 77 kts 174°
2026-04-14 11:20 -37.66911 144.83797 389 ft 42 kts 163°
2026-04-14 11:20 -37.67112 144.83938 381 ft 30 kts 141°
2026-04-14 11:20 -37.67153 144.83979 380 ft 1 kts 143°
2026-04-14 11:21 -37.67154 144.83980 380 ft 1 kts 143°
2026-04-14 11:21 -37.67162 144.83987 379 ft 3 kts 143°
2026-04-14 11:21 -37.67204 144.84042 378 ft 13 kts 124°
2026-04-14 11:21 -37.67218 144.84178 379 ft 17 kts 84°
2026-04-14 11:22 -37.67205 144.84335 382 ft 20 kts 83°
2026-04-14 11:22 -37.67210 144.84508 384 ft 21 kts 92°
2026-04-14 11:22 -37.67193 144.84671 387 ft 15 kts 82°
2026-04-14 11:22 -37.67167 144.84755 389 ft 8 kts 31°
2026-04-14 11:23 -37.67145 144.84762 389 ft 0 kts 10°